Starlink 31369

operational
NORAD ID: 58975 Int'l Des: 2024-031 Owner: SPXS Country: US Constellation: starlink
LEOCIRCULAR

关于 Starlink 31369

正在加载描述...

实时位置

正在加载3D地球...

即将过境

高度历史

Altitude vs Time

uPlot chart will show altitude changes over time

两行轨道根数

1 58975U 24031L 25258.58672846 -.00000883 00000-0 -17703-4 0 9995
2 58975 53.1624 30.0677 0001268 78.2381 281.8762 15.30194658 89706
Epoch: Sep 15, 2025 • Age: 12 hours

当前状态

高度 476.8 km
速度 7.63 km/s
星下点 31.67°N, 160.31°E
发射日期 Feb 15, 2024
运行时间 1.5 years
类型 internet

技术详情

分类 Payload
质量 730.00 kg
干质量 700.00 kg
总质量 730.00 kg
长度 0.30 m
直径 4.10 m
跨度 29.00 m
形状 Box + pan
制造商 SPXS
平台类型 Starlink V2M
阶段状态 In Orbit
所有者/国家 SPXS/US

大型星座

Loading constellations...